Regional Weather Roundup
Issued by NWS San Angelo, TX

Home | Current Version | Previous Version | Text Only | Print | Product List | Glossary On
Versions: 1 2 3 4 5 6 7 8 9 10 11 12 13 14 15 16 17 18 19 20 21 22 23 24 25 26 27 28 29 30 31 32 33 34 35 36 37 38 39 40 41 42 43 44 45 46 47 48 49 50
000
ASUS44 KSJT 310202
RWRSJT
WEST CENTRAL TEXAS REGIONAL WEATHER ROUNDUP
NATIONAL WEATHER SERVICE SAN ANGELO TX
900 PM CDT SAT JUL 30 2016

NOTE: "FAIR" INDICATES FEW OR NO CLOUDS BELOW 12,000 FEET WITH NO
SIGNIFICANT WEATHER AND/OR OBSTRUCTIONS TO VISIBILITY.

TXZ049-054-064>066-071>073-076>078-098-099-113-114-127-128-139-140-
154-155-168>170-310300
...LOCATIONS ACROSS WEST CENTRAL TEXAS...

CITY           SKY/WX    TMP DP  RH WIND       PRES   REMARKS
SAN ANGELO     CLEAR     87  61  41 S6        29.93R
ABILENE        CLEAR     89  61  38 SE6       29.94R
DYESS AFB      PTCLDY    91  63  39 SE9       29.92R
JUNCTION       CLEAR     90  63  40 S12       29.96R
SWEETWATER     PTCLDY    87  58  37 SE6       29.98R
BROWNWOOD      PTCLDY    90  63  40 SE8       29.93R
COLEMAN        PTCLDY    89  60  37 SE8       29.94R
SONORA         CLEAR     90  61  37 S12       30.00R
OZONA          FAIR      86  59  39 S13       29.99R
BRADY          NOT AVBL
$$

TEXAS PANHANDLE/OKLAHOMA PANHANDLE

CITY           SKY/WX    TMP DP  RH WIND       PRES   REMARKS
AMARILLO       CLEAR     82  61  48 S15       30.00R
BORGER         CLEAR     87  62  43 S16G24    29.95R
CANADIAN       CLEAR     87  65  49 S13       29.91R
DALHART        CLEAR     85  55  35 S13       29.97S
DUMAS          CLEAR     83  57  41 S13       29.96S
GUYMON         NOT AVBL
HEREFORD       CLEAR    N/A N/A N/A S13G18    30.01R
PAMPA          CLEAR     83  60  45 S15       29.99R
PERRYTON       CLEAR     89  57  34 S13       29.91S
$$

SOUTHERN PANHANDLE/SOUTH PLAINS/ROLLING PLAINS

CITY           SKY/WX    TMP DP  RH WIND       PRES   REMARKS
LUBBOCK        PTCLDY    81  59  47 E12       29.99R
SNYDER           N/A     89  59  36 SE7       29.95S
CHILDRESS      CLOUDY    85  61  44 SW14G20   29.92R
SEMINOLE       CLEAR     87  53  31 S8        29.99R
$$

PERMIAN BASIN

CITY           SKY/WX    TMP DP  RH WIND       PRES   REMARKS
MIDLAND        CLEAR     91  56  30 S14       29.95R
ODESSA         CLEAR     90  56  31 S16       29.96R
WINK           PTCLDY    90  57  32 S14       29.91R
$$

FAR WEST/SOUTHWEST MOUNTAINS/TRANS PECOS

CITY           SKY/WX    TMP DP  RH WIND       PRES   REMARKS
ALPINE         PTCLDY    71  64  78 W6        30.11R
DRYDEN           N/A     85  67  54 SE8       29.92R
EL PASO        MOCLDY    92  50  23 S9        29.93R
FORT STOCKTON  CLEAR     85  60  42 SE17G25   29.96R
GUADALUPE PASS CLEAR     81  48  31 E12       30.10R
MARFA          CLOUDY    72  62  71 N9        30.10R
PECOS          CLEAR     89  58  36 SE7       29.91R
$$

DALLAS/FORT WORTH METROPLEX

CITY           SKY/WX    TMP DP  RH WIND       PRES   REMARKS
DFW AIRPORT    PTCLDY    93  62  35 S12       29.90R
FTW MEACHAM    CLEAR     93  62  35 SE12      29.90R
DAL-EXECUTIVE  CLEAR     90  67  46 SE10      29.91R
GRAND PRAIRIE  CLEAR     91  64  40 SE7       29.92R
ADDISON        CLEAR     91  63  38 SE15G23   29.91R
MESQUITE       CLEAR     87  68  53 SE6       29.92R
LANCASTER      CLEAR     90  68  49 SE5       29.92S
$$

NORTH CENTRAL TEXAS

CITY           SKY/WX    TMP DP  RH WIND       PRES   REMARKS
SHRMAN/DENISON NOT AVBL
GAINESVILLE    NOT AVBL
BRIDGEPORT     CLEAR     87  68  52 SE5       29.92R
DENTON         CLEAR     87  67  51 S10       29.90R
WAXAHACHIE     CLEAR     88  68  52 SE5       29.93R
GRANBURY       CLEAR     92  64  38 SE9       29.91S
$$

WESTERN NORTH TEXAS

CITY           SKY/WX    TMP DP  RH WIND       PRES   REMARKS
WICHITA FALLS  CLEAR     88  65  46 SE10      29.87R
VERNON         PTCLDY    90  54  29 S8        29.89R
BRECKENRIDGE   NOT AVBL
COMANCHE       CLEAR     88  63  43 SE7       29.94R
$$

CENTRAL AND SOUTH CENTRAL TEXAS

CITY           SKY/WX    TMP DP  RH WIND       PRES   REMARKS
AUSTIN/BERGSTM PTCLDY    82  74  76 CALM      29.93R
WACO           CLEAR     91  66  43 S9        29.91S
HILLSBORO      CLEAR     87  65  47 SE6       29.93R
TEMPLE         CLEAR     89  68  49 S10       29.94R
KILLEEN-GRAY   CLEAR     86  65  49 SE9       29.94R
FORT HOOD      CLEAR     88  66  48 S8        29.92R
GEORGETOWN     NOT AVBL
LAGO VISTA     FAIR      87  68  53 SE3       29.98R
SAN MARCOS     CLEAR     86  72  62 S9        29.96R
NEW BRAUNFELS  MOCLDY    88  72  58 S10       29.93R
RANDOLPH AFB   PTCLDY    85  73  65 SE12      29.94R
SAN ANTONIO    PTCLDY    89  70  53 SE17      29.94R
STINSON        CLEAR     88  71  57 SE9       29.92R
PLEASANTON     NOT AVBL
LA GRANGE      NOT AVBL
GIDDINGS       PTCLDY    85  72  63 S3        29.98S
$$

EAST TEXAS

CITY           SKY/WX    TMP DP  RH WIND       PRES   REMARKS
PARIS          CLEAR     79  64  61 E10       29.95R
CLARKSVILLE    NOT AVBL
TYLER          CLEAR     89  69  51 S7        29.95R
LONGVIEW       CLEAR     83  73  72 S5        29.93S
PALESTINE      CLEAR     85  72  64 CALM      29.96R
NACOGDOCHES    CLEAR    N/A N/A N/A CALM      29.95R
$$

TEXAS HILL COUNTRY AND EDWARDS PLATEAU

CITY           SKY/WX    TMP DP  RH WIND       PRES   REMARKS
LLANO          CLEAR     90  66  45 S8        29.97R
HORSESHOE BAY  FAIR      86  66  51 S5        29.95S
KERRVILLE      CLEAR     85  67  55 S8        29.98S
FREDERICKSBRG  CLEAR     85  61  45 S5        29.99R
ROCKSPRINGS    NOT AVBL
HONDO          CLEAR     87  70  56 E6        29.94S
UVALDE         CLEAR     85  67  54 E5        29.92R
DEL RIO        CLEAR     92  62  36 SE10      29.88R
$$

SOUTHEAST TEXAS

CITY           SKY/WX    TMP DP  RH WIND       PRES   REMARKS
COLLEGE STN    CLEAR     89  72  56 SE9       29.94R
CALDWELL       CLEAR     86  70  58 SE5       29.97R
CROCKETT       NOT AVBL
BRENHAM        CLEAR     87  74  65 SE6       29.96R
HUNTSVILLE     MOCLDY    84  73  69 S9        29.96R
CONROE         PTCLDY    82  72  71 SE6       29.97R
HOUSTON BUSH   PTCLDY    85  75  72 S5        29.96R
HOUSTON HOBBY  PTCLDY    84  75  74 S7        29.96R
PERLAND        CLEAR     86  76  71 S6        29.98R
WHARTON        NOT AVBL
$$

THE UPPER TEXAS COAST

CITY           SKY/WX    TMP DP  RH WIND       PRES   REMARKS
ORANGE         CLEAR     82  76  82 SW5       29.98S
PORT ARTHUR    CLEAR     81  77  88 S5        29.97R
GALVESTON      CLEAR     85  78  80 S12       29.98S
ANGLETON       CLEAR     83  77  82 S6        29.97R
BAY CITY       CLEAR     83  77  81 CALM      29.97S
$$

TEXAS COASTAL BEND, RIO GRANDE PLAINS DEEP SOUTH TEXAS

CITY           SKY/WX    TMP DP  RH WIND       PRES   REMARKS
VICTORIA       CLEAR     83  75  77 S9        29.95S
BEEVILLE       FAIR      84  74  72 SE13G18   29.94R
ROCKPORT       CLEAR     85  75  72 SE10      29.94S
PORT ARANSAS   CLEAR     84  78  83 S12       29.95S
PORT LAVACA    CLEAR     82  77  85 S8        29.95S
CORPUS CHRISTI PTCLDY    85  77  77 SE14G21   29.94S
KINGSVILLE NAS CLEAR     84  78  82 SE14      29.93R
COTULLA        PTCLDY    91  71  51 SE21G29   29.89R
LAREDO         CLEAR     89  72  56 SE13      29.89R
BROWNSVILLE    CLEAR     84  76  76 SE12      29.94R
PORT ISABEL    CLEAR     85  76  74 SE14      29.93S
HEBBRONVILLE   CLEAR     89  71  55 SE14G20   29.93S
MCALLEN        CLEAR     89  73  59 SE17G25   29.92R
WESLACO        CLEAR     83  24  11 SE12G17   29.91S
FALFURRIAS     PTCLDY    86  71  59 SE12      29.92R
EDINBURG       CLEAR     88  71  56 SE13      29.93R
$$




USA.gov is the U.S. government's official web portal to all federal, state and local government web resources and services.